STARLINK-11433, 62008

Orbit data source: Space-Track

STARLINK-11433, 62008 is a payload satellite owned by SpaceX/Seattle (US) in LEO that was launched on Mon, 18 Nov 2024 UTC via an FALCON 9 launch vehicle from the Air Force Western Test Range (AFWTR). Payload-class satellites include a variety of spacecraft equipped with specific instruments for various scientific and technological missions. These include communications satellites like Starlink; space stations such as the ISS; scientific satellites like the Hubble; Earth observation satellites from companies like Planet Labs, Umbra, and HawkEye 360; GPS; miniature CubeSats for education and research; and military/defense satellites.

Loading next visibility...
Identifier
62008, 2024-213A
Orbit
LEO
Country
Flag of USUS
Related business
Manufacturer
SpaceX/Seattle
Mission
Operational Commercial Communications
Bus & Motor
STARLINK V2MD, Unknown motor
Mass
960 kg wet, ~910 kg dry
Launch date (UTC)
2024-11-18 (2 years ago)
Launch vehicle
FALCON 9
Launch site
Air Force Western Test Range (AFWTR)
Object type
Payload
Rocket body
Debris
Shape & HBR
Box + 2 Pan, 18.1 m
Radar Cross Section
36.964 m², Large (>1 m²)

Expand to show TLE details & history
Last TLE update: 2 days ago

TLE from 2 days ago
0 STARLINK-11433
1 62008U 24213A   26171.23637485  .00238712  00000-0  19127-2 0  9998
2 62008  53.1574 255.5702 0000403  75.6962 284.4100 15.69788532 91026
Epoch: 2026-06-20T05:40Z
TLE epoch observation values (Epoch: 2026-06-20T05:40:22.787Z)
Latitude
-0.00005°
Longitude
-97.97868°
Altitude
360.349 km
Speed
7.694 km/s
True Right ascension
17h 02m 16s
True Declination
0° 00' 00"
Sunlit
Object was in full shadow at epoch
Visualization orbit readout
Latitude
Unknown
Longitude
Unknown
Altitude
Unknown
Speed
Unknown
Apparent Right ascension
Unknown
Apparent Declination
Unknown
Sunlit
N/A
Visualization observer readout
Local Sidereal Time
23:27:20
Azimuth
Unknown
Elevation
Unknown
Doppler factor
Unknown
Orbital elements
Apogee altitude
360.035 km
Perigee altitude
359.492 km
Semi-major axis
6,737.9 km
Eccentricity
0.00004
Inclination
53.1574°
RAAN
255.5702°
Arg. of periapsis
75.6962°
True anomaly
284.40553°
Mean anomaly
284.41°
Eccentric anomaly
284.40776°
Mean motion
3.92425 °/min
Orbital period
91.74 mins
BSTAR
0.0019127
Loading maneuver chart data...
Computing Atmospheric mass density...
Loading historical data...
Loading historical data...
Loading historical data...
Loading historical data...
Loading historical data...
Loading historical data...
Loading historical data...

Documentation

Showing up to 5 results
|